User: anonymous   Login
Location: Newark
(43.0000°N, 1.6781°W)
Time: 18:02:07
(UTC+00:00)
Language:

SO-50 - Orbit

View from above orbital plane
View from above orbital plane
View from above satellite
View from above satellite

Ground track
Ground track

The orbit data is extracted from the following two-line orbital elements,

1 27607U 02058C   24148.71221664  .00001957  00000-0  28184-3 0  9993
2 27607  64.5557 284.4789 0028138 123.4453 236.9348 14.78929801153500
Epoch (UTC): 27 May 2024 17:05:35
Eccentricity: 0.0028138
inclination: 64.5557°
perigee height: 613 km
apogee height: 652 km
right ascension of ascending node: 284.4789°
argument of perigee: 123.4453°
revolutions per day: 14.78929801
mean anomaly at epoch: 236.9348°
orbit number at epoch: 15350

The dashed part of the orbit path shows where the satellite is in the earth's shadow,  

DLR